Fairbanks Ft. Wainwright, AK

4:04 AM AKDT on August 18, 2017 (GMT -0800)
Ladd Army Air Field

Weather History for PAFB - May, 2014

Change the Weather History Date:

Monday, May 12, 2014

  Actual Average Record
Temperature  
Mean Temperature 54 °F -  
Max Temperature 71 °F 54 °F 77 °F (2005)
Min Temperature 37 °F 35 °F 28 °F (1998)
Degree Days  
Heating Degree Days 11    
Growing Degree Days 4 (Base 50)    
Moisture  
Dew Point 27 °F    
Average Humidity 38    
Maximum Humidity 75    
Minimum Humidity 14    
Precipitation  
Precipitation 0.00 in - - ()
Sea Level Pressure  
Sea Level Pressure 30.23 in    
Wind  
Wind Speed 2 mph (SW)    
Max Wind Speed 6 mph    
Max Gust Speed -    
Visibility 12 miles    
Events      
Averages and records for this station are not official NWS values.
T = Trace of Precipitation, MM = Missing Value Source: NWS Daily Summary

Daily Weather History Graph

Daily Weather History Graph

Search for Another Location

Airport or City:

Trip Planner

Search our weather history database for the weather conditions in past years. The results will help you decide how hot, cold, wet, or windy it might be!

Date:

Astronomy

May. 12, 2014 Rise Set
Actual Time 4:37 AM AKDT 10:58 PM AKDT
Civil Twilight 2:53 AM AKDT 12:48 AM AKDT
Nautical Twilight Sun does not set Sun does not set
Astronomical Twilight Sun does not set Sun does not set
Moon 8:13 PM AKDT (5/12) 4:29 AM AKDT (5/12)
Length of Visible Light 21h 54m
Length of Day
18h 21m
Waxing Gibbous, 95% of the Moon is Illuminated
May 12
Waxing Gibbous
May 14
Full
May 21
Last Quarter
May 28
New
Jun 5
First Quarter

Hourly Weather History & Observations

Time (AKDT) Temp. Windchill Dew Point Humidity Pressure Visibility Wind Dir Wind Speed Gust Speed Precip Events Conditions
12:56 AM 45.0 °F - 32.0 °F 60% 30.24 in 10.0 mi North - - N/A   Clear
1:56 AM 44.1 °F - 28.9 °F 55% 30.25 in 10.0 mi North - - N/A   Clear
2:56 AM 41.0 °F - 28.9 °F 62% 30.26 in 10.0 mi North - - N/A   Clear
3:56 AM 39.0 °F - 28.9 °F 67% 30.26 in 10.0 mi North - - N/A   Clear
4:56 AM 41.0 °F - 28.0 °F 60% 30.26 in 10.0 mi North - - N/A   Clear
5:56 AM 37.0 °F - 28.9 °F 73% 30.28 in 10.0 mi North - - N/A   Clear
6:10 AM 37.4 °F - 30.2 °F 75% 30.26 in 25.0 mi Calm Calm - N/A   Scattered Clouds
6:55 AM 44.6 °F - 28.4 °F 53% 30.28 in 20.0 mi Variable 2.3 mph - N/A   Scattered Clouds
7:55 AM 46.4 °F 44.3 °F 30.2 °F 53% 30.28 in 20.0 mi NNE 4.6 mph - N/A   Mostly Cloudy
8:55 AM 51.8 °F - 30.2 °F 44% 30.28 in 20.0 mi East 2.3 mph - N/A   Scattered Clouds
9:55 AM 57.2 °F - 30.2 °F 36% 30.27 in 25.0 mi Variable 3.5 mph - N/A   Scattered Clouds
10:55 AM 62.6 °F - 26.6 °F 26% 30.27 in 25.0 mi Calm Calm - N/A   Scattered Clouds
11:55 AM 64.4 °F - 26.6 °F 24% 30.26 in 25.0 mi Variable 3.5 mph - N/A   Mostly Cloudy
12:55 PM 66.2 °F - 24.8 °F 21% 30.24 in 15.0 mi Variable 3.5 mph - N/A   Mostly Cloudy
1:55 PM 69.8 °F - 23.0 °F 17% 30.23 in 15.0 mi Variable 3.5 mph - N/A   Mostly Cloudy
2:55 PM 69.8 °F - 24.8 °F 18% 30.22 in 15.0 mi WSW 3.5 mph - N/A   Scattered Clouds
3:55 PM 69.8 °F - 24.8 °F 18% 30.20 in 7.0 mi West 2.3 mph - N/A   Smoke
4:55 PM 71.6 °F - 21.2 °F 15% 30.19 in 6.0 mi WNW 4.6 mph - N/A   Smoke
5:55 PM 71.6 °F - 19.4 °F 14% 30.18 in 6.0 mi Calm Calm - N/A   Smoke
6:55 PM 71.6 °F - 21.2 °F 15% 30.17 in 7.0 mi SW 5.8 mph - N/A   Haze
7:55 PM 69.8 °F - 17.6 °F 14% 30.16 in 9.0 mi SSW 2.3 mph - N/A   Haze
8:55 PM 69.8 °F - 21.2 °F 16% 30.15 in 10.0 mi SSW 4.6 mph - N/A   Haze
9:55 PM 64.4 °F - 26.6 °F 24% 30.14 in 13.0 mi SSW 3.5 mph - N/A   Haze
10:56 PM 55.9 °F - 30.9 °F 39% 30.16 in 9.0 mi North - - N/A   Clear
11:56 PM 48.9 °F - 33.1 °F 54% 30.16 in 9.0 mi North - - N/A   Clear